"read_dt","SO2 (ppb)","flags","PMT voltage (V)","lamp voltage (V)","lamp intensity (Hz)","internal temp (C)","react chamber temp (C)","sample flow (l/min)","pres (mmHg)","SO2 bkg (ppb)","SO2 coefficient"
2016-03-03 00:00:00,2024E-3,5C000400,-0724,0838,12131,028.1,045.4,0.255,756.4,01.16,0.508
2016-03-03 00:01:00,1949E-3,5C000400,-0724,0837,12110,028.0,045.4,0.255,756.3,01.16,0.508
2016-03-03 00:02:00,1852E-3,5C000400,-0724,0837,12022,028.1,045.4,0.256,756.4,01.16,0.508
2016-03-03 00:03:00,1816E-3,5C000400,-0724,0837,12285,028.1,045.4,0.256,756.3,01.16,0.508
2016-03-03 00:04:00,1796E-3,5C000400,-0724,0837,12099,028.1,045.4,0.255,756.2,01.16,0.508
2016-03-03 00:05:00,1858E-3,5C000400,-0724,0837,11931,028.1,045.4,0.255,756.2,01.16,0.508
2016-03-03 00:06:00,1805E-3,5C000400,-0724,0837,12210,028.1,045.4,0.255,756.3,01.16,0.508
2016-03-03 00:07:00,1851E-3,5C000400,-0724,0838,11948,028.1,045.4,0.256,756.3,01.16,0.508
2016-03-03 00:08:00,1775E-3,5C000400,-0724,0836,12152,028.1,045.4,0.255,756.3,01.16,0.508
2016-03-03 00:09:00,1850E-3,5C000400,-0724,0837,12070,028.0,045.4,0.255,756.3,01.16,0.508
2016-03-03 00:10:00,1883E-3,5C000400,-0724,0837,12181,028.1,045.4,0.255,756.3,01.16,0.508
2016-03-03 00:11:00,1859E-3,5C000400,-0724,0837,12150,028.1,045.4,0.256,756.3,01.16,0.508
2016-03-03 00:12:00,1982E-3,5C000400,-0724,0837,12097,028.1,045.4,0.255,756.2,01.16,0.508
2016-03-03 00:13:00,1816E-3,5C000400,-0724,0837,12103,028.0,045.4,0.255,756.3,01.16,0.508
2016-03-03 00:14:00,1725E-3,5C000400,-0724,0836,11965,028.1,045.4,0.255,756.3,01.16,0.508
2016-03-03 00:15:00,1587E-3,5C000400,-0724,0837,12260,028.1,045.4,0.256,756.3,01.16,0.508
2016-03-03 00:16:00,1871E-3,5C000400,-0724,0837,12068,028.1,045.4,0.255,756.2,01.16,0.508
2016-03-03 00:17:00,1703E-3,5C000400,-0724,0837,12242,028.1,045.4,0.255,756.5,01.16,0.508
2016-03-03 00:18:00,1919E-3,5C000400,-0724,0837,12152,028.1,045.4,0.255,756.3,01.16,0.508
2016-03-03 00:19:00,1860E-3,5C000400,-0724,0836,12185,028.1,045.4,0.256,756.3,01.16,0.508
2016-03-03 00:20:00,1750E-3,5C000400,-0724,0837,12047,028.1,045.4,0.256,756.3,01.16,0.508
2016-03-03 00:21:00,1880E-3,5C000400,-0724,0836,12051,028.0,045.4,0.255,756.3,01.16,0.508
2016-03-03 00:22:00,1799E-3,5C000400,-0724,0837,12093,028.1,045.4,0.255,756.3,01.16,0.508
2016-03-03 00:23:00,1757E-3,5C000400,-0724,0836,12023,028.0,045.4,0.255,756.3,01.16,0.508
2016-03-03 00:24:00,1921E-3,5C000400,-0724,0837,12133,028.1,045.4,0.256,756.3,01.16,0.508
2016-03-03 00:25:00,1771E-3,5C000400,-0724,0837,12199,028.1,045.4,0.255,756.2,01.16,0.508
2016-03-03 00:26:00,1896E-3,5C000400,-0724,0837,11990,028.1,045.4,0.255,756.2,01.16,0.508
2016-03-03 00:27:00,1891E-3,5C000400,-0724,0836,12216,028.1,045.4,0.255,756.1,01.16,0.508
2016-03-03 00:28:00,1800E-3,5C000400,-0724,0837,12079,028.1,045.4,0.256,756.2,01.16,0.508
2016-03-03 00:29:00,1844E-3,5C000400,-0724,0838,12074,028.1,045.4,0.255,756.3,01.16,0.508
2016-03-03 00:30:00,1996E-3,5C000400,-0724,0837,12193,028.0,045.4,0.255,756.3,01.16,0.508
2016-03-03 00:31:00,1752E-3,5C000400,-0724,0837,12180,028.1,045.4,0.256,756.3,01.16,0.508
2016-03-03 00:32:00,1695E-3,5C000400,-0724,0837,11988,028.1,045.4,0.256,756.4,01.16,0.508
2016-03-03 00:33:00,1883E-3,5C000400,-0724,0837,12068,028.1,045.4,0.255,756.3,01.16,0.508
2016-03-03 00:34:00,1719E-3,5C000400,-0724,0836,12057,028.1,045.4,0.255,756.3,01.16,0.508
2016-03-03 00:35:00,1871E-3,5C000400,-0724,0836,12013,028.1,045.4,0.255,756.3,01.16,0.508
2016-03-03 00:36:00,1770E-3,5C000400,-0724,0836,12202,028.1,045.4,0.256,756.3,01.16,0.508
2016-03-03 00:37:00,1806E-3,5C000400,-0724,0837,12117,028.1,045.4,0.255,756.3,01.16,0.508
2016-03-03 00:38:00,1738E-3,5C000400,-0724,0837,12136,028.0,045.4,0.255,756.3,01.16,0.508
2016-03-03 00:39:00,1831E-3,5C000400,-0724,0837,12091,028.1,045.4,0.256,756.2,01.16,0.508
2016-03-03 00:40:00,1831E-3,5C000400,-0724,0837,12089,028.1,045.4,0.255,756.1,01.16,0.508
2016-03-03 00:41:00,1785E-3,5C000400,-0724,0837,11990,028.1,045.4,0.255,756.2,01.16,0.508
2016-03-03 00:42:00,1817E-3,5C000400,-0724,0837,12057,028.0,045.4,0.255,756.1,01.16,0.508
2016-03-03 00:43:00,1727E-3,5C000400,-0724,0836,12136,028.0,045.4,0.256,756.0,01.16,0.508
2016-03-03 00:44:00,1920E-3,5C000400,-0724,0837,12169,028.0,045.4,0.256,756.2,01.16,0.508
2016-03-03 00:45:00,1870E-3,5C000400,-0724,0838,12151,028.0,045.4,0.256,756.0,01.16,0.508
2016-03-03 00:46:00,1902E-3,5C000400,-0724,0837,12096,028.1,045.4,0.255,756.2,01.16,0.508
2016-03-03 00:47:00,1845E-3,5C000400,-0724,0837,12085,028.1,045.4,0.255,756.0,01.16,0.508
2016-03-03 00:48:00,1845E-3,5C000400,-0724,0837,12188,028.1,045.4,0.255,756.2,01.16,0.508
2016-03-03 00:49:00,1888E-3,5C000400,-0724,0837,12073,028.1,045.4,0.255,756.2,01.16,0.508
2016-03-03 00:50:00,1795E-3,5C000400,-0724,0836,12097,028.0,045.4,0.256,756.1,01.16,0.508
2016-03-03 00:51:00,1876E-3,5C000400,-0724,0837,12042,028.1,045.4,0.255,756.1,01.16,0.508
2016-03-03 00:52:00,1714E-3,5C000400,-0724,0837,12174,028.1,045.4,0.255,756.0,01.16,0.508
2016-03-03 00:53:00,1805E-3,5C000400,-0724,0837,12175,028.1,045.4,0.255,756.3,01.16,0.508
2016-03-03 00:54:00,1632E-3,5C000400,-0724,0837,12068,028.1,045.4,0.256,756.1,01.16,0.508
2016-03-03 00:55:00,1814E-3,5C000400,-0724,0837,12238,028.0,045.4,0.256,756.3,01.16,0.508
2016-03-03 00:56:00,1859E-3,5C000400,-0724,0837,12132,028.0,045.4,0.255,756.3,01.16,0.508
2016-03-03 00:57:00,1854E-3,5C000400,-0724,0836,12013,028.0,045.4,0.255,756.1,01.16,0.508
2016-03-03 00:58:00,1825E-3,5C000400,-0724,0837,12119,028.1,045.4,0.256,756.3,01.16,0.508
2016-03-03 00:59:00,1902E-3,5C000400,-0724,0837,12146,028.0,045.4,0.256,756.3,01.16,0.508
2016-03-03 01:00:00,1908E-3,5C000400,-0724,0836,11930,028.1,045.4,0.255,756.2,01.16,0.508
2016-03-03 01:01:00,1857E-3,5C000400,-0724,0837,12194,028.1,045.4,0.255,756.2,01.16,0.508
2016-03-03 01:02:00,1808E-3,5C000400,-0724,0836,12023,028.0,045.4,0.255,756.2,01.16,0.508
2016-03-03 01:03:00,1929E-3,5C000400,-0724,0838,12147,028.0,045.4,0.256,756.1,01.16,0.508
2016-03-03 01:04:00,1727E-3,5C000400,-0724,0836,11980,028.0,045.4,0.255,756.2,01.16,0.508
2016-03-03 01:05:00,1803E-3,5C000400,-0724,0836,12208,028.0,045.4,0.255,756.1,01.16,0.508
2016-03-03 01:06:00,1860E-3,5C000400,-0724,0836,12082,028.0,045.4,0.256,756.2,01.16,0.508
2016-03-03 01:07:00,1810E-3,5C000400,-0724,0836,12134,028.1,045.4,0.256,756.1,01.16,0.508
2016-03-03 01:08:00,1874E-3,5C000400,-0724,0837,12114,028.0,045.4,0.255,756.1,01.16,0.508
2016-03-03 01:09:00,1830E-3,5C000400,-0724,0836,11884,028.0,045.4,0.255,756.1,01.16,0.508
2016-03-03 01:10:00,1900E-3,5C000400,-0724,0837,12263,028.1,045.4,0.256,756.1,01.16,0.508
2016-03-03 01:11:00,1815E-3,5C000400,-0724,0838,12050,028.0,045.4,0.256,755.9,01.16,0.508
2016-03-03 01:12:00,1826E-3,5C000400,-0724,0837,12182,028.0,045.4,0.255,756.1,01.16,0.508
2016-03-03 01:13:00,1768E-3,5C000400,-0724,0837,12138,028.0,045.4,0.255,755.9,01.16,0.508
2016-03-03 01:14:00,1757E-3,5C000400,-0724,0837,12232,028.0,045.4,0.256,756.1,01.16,0.508
2016-03-03 01:15:00,1848E-3,5C000400,-0724,0837,12129,028.0,045.4,0.256,756.0,01.16,0.508
2016-03-03 01:16:00,1825E-3,5C000400,-0724,0837,12027,028.0,045.4,0.256,756.0,01.16,0.508
2016-03-03 01:17:00,1801E-3,5C000400,-0724,0837,12172,028.0,045.4,0.255,756.0,01.16,0.508
2016-03-03 01:18:00,1891E-3,5C000400,-0724,0836,12221,028.0,045.4,0.255,756.1,01.16,0.508
2016-03-03 01:19:00,1809E-3,5C000400,-0724,0837,12199,028.0,045.4,0.256,756.2,01.16,0.508
2016-03-03 01:20:00,1823E-3,5C000400,-0724,0837,12070,028.0,045.4,0.256,756.1,01.16,0.508
2016-03-03 01:21:00,1795E-3,5C000400,-0724,0837,12182,028.0,045.4,0.255,755.9,01.16,0.508
2016-03-03 01:22:00,1795E-3,5C000400,-0724,0836,12131,028.0,045.4,0.255,756.0,01.16,0.508
2016-03-03 01:23:00,1719E-3,5C000400,-0724,0837,12108,028.0,045.4,0.255,755.9,01.16,0.508
2016-03-03 01:24:00,1794E-3,5C000400,-0724,0837,12010,028.0,045.4,0.256,755.9,01.16,0.508
2016-03-03 01:25:00,1712E-3,5C000400,-0724,0837,12158,028.0,045.4,0.255,755.8,01.16,0.508
2016-03-03 01:26:00,1858E-3,5C000400,-0724,0837,12230,028.0,045.4,0.255,755.8,01.16,0.508
2016-03-03 01:27:00,1908E-3,5C000400,-0724,0837,12090,028.0,045.4,0.255,755.7,01.16,0.508
2016-03-03 01:28:00,1812E-3,5C000400,-0724,0837,12035,028.0,045.4,0.255,755.7,01.16,0.508
2016-03-03 01:29:00,1744E-3,5C000400,-0724,0837,12210,028.0,045.4,0.256,755.7,01.16,0.508
2016-03-03 01:30:00,1867E-3,5C000400,-0724,0836,12020,028.0,045.4,0.255,755.6,01.16,0.508
2016-03-03 01:31:00,1682E-3,5C000400,-0724,0837,12144,028.0,045.4,0.255,755.4,01.16,0.508
2016-03-03 01:32:00,1815E-3,5C000400,-0724,0836,12134,028.0,045.4,0.255,755.5,01.16,0.508
2016-03-03 01:33:00,1932E-3,5C000400,-0724,0837,12154,028.0,045.4,0.256,755.7,01.16,0.508
2016-03-03 01:34:00,1857E-3,5C000400,-0724,0836,12180,028.0,045.4,0.256,755.4,01.16,0.508
2016-03-03 01:35:00,1798E-3,5C000400,-0724,0837,12085,028.0,045.4,0.255,755.5,01.16,0.508
2016-03-03 01:36:00,1812E-3,5C000400,-0724,0838,12200,028.0,045.4,0.255,755.7,01.16,0.508
2016-03-03 01:37:00,1817E-3,5C000400,-0724,0837,12145,028.0,045.4,0.256,755.7,01.16,0.508
2016-03-03 01:38:00,1823E-3,5C000400,-0724,0837,11978,028.0,045.4,0.256,755.6,01.16,0.508
2016-03-03 01:39:00,1830E-3,5C000400,-0724,0837,12056,028.0,045.4,0.256,755.7,01.16,0.508
2016-03-03 01:40:00,1801E-3,5C000400,-0724,0837,12077,028.0,045.4,0.255,755.7,01.16,0.508
2016-03-03 01:41:00,1786E-3,5C000400,-0724,0837,12065,028.0,045.4,0.255,755.6,01.16,0.508
2016-03-03 01:42:00,1723E-3,5C000400,-0724,0837,12004,028.0,045.4,0.256,755.6,01.16,0.508
2016-03-03 01:43:00,1801E-3,5C000400,-0724,0837,12153,028.0,045.4,0.256,755.6,01.16,0.508
2016-03-03 01:44:00,1888E-3,5C000400,-0724,0837,12102,028.0,045.4,0.256,755.6,01.16,0.508
2016-03-03 01:45:00,1914E-3,5C000400,-0724,0837,12120,028.0,045.4,0.256,755.7,01.16,0.508
2016-03-03 01:46:00,1877E-3,5C000400,-0724,0836,12179,028.0,045.4,0.255,756.0,01.16,0.508
2016-03-03 01:47:00,1769E-3,5C000400,-0724,0837,12261,028.0,045.4,0.255,756.0,01.16,0.508
2016-03-03 01:48:00,1818E-3,5C000400,-0724,0837,12155,028.0,045.4,0.256,756.0,01.16,0.508
2016-03-03 01:49:00,1825E-3,5C000400,-0724,0837,12198,028.0,045.4,0.256,756.1,01.16,0.508
2016-03-03 01:50:00,1832E-3,5C000400,-0724,0837,12091,028.0,045.4,0.256,756.1,01.16,0.508
2016-03-03 01:51:00,1860E-3,5C000400,-0724,0837,12170,028.0,045.4,0.255,756.0,01.16,0.508
2016-03-03 01:52:00,1824E-3,5C000400,-0724,0836,12169,027.9,045.4,0.255,756.0,01.16,0.508
2016-03-03 01:53:00,1708E-3,5C000400,-0724,0837,12103,027.9,045.4,0.256,756.1,01.16,0.508
2016-03-03 01:54:00,1759E-3,5C000400,-0724,0837,12174,028.0,045.4,0.256,756.2,01.16,0.508
2016-03-03 01:55:00,1771E-3,5C000400,-0724,0837,12169,027.9,045.4,0.256,756.1,01.16,0.508
2016-03-03 01:56:00,1757E-3,5C000400,-0724,0837,12105,027.9,045.4,0.255,756.1,01.16,0.508
2016-03-03 01:57:00,1890E-3,5C000400,-0724,0837,12055,027.9,045.4,0.255,756.0,01.16,0.508
2016-03-03 01:58:00,1754E-3,5C000400,-0724,0837,12163,027.9,045.4,0.256,756.2,01.16,0.508
2016-03-03 01:59:00,1813E-3,5C000400,-0724,0837,12016,027.9,045.4,0.256,756.2,01.16,0.508
2016-03-03 02:00:00,1887E-3,5C000400,-0724,0837,12019,027.9,045.4,0.256,756.2,01.16,0.508
2016-03-03 02:01:00,1835E-3,5C000400,-0724,0837,12105,027.9,045.4,0.255,756.2,01.16,0.508
2016-03-03 02:02:00,1776E-3,5C000400,-0724,0837,12179,027.9,045.4,0.256,756.1,01.16,0.508
2016-03-03 02:03:00,1843E-3,5C000400,-0724,0837,12022,027.9,045.4,0.256,756.3,01.16,0.508
2016-03-03 02:04:00,1721E-3,5C000400,-0724,0837,12148,027.9,045.4,0.256,756.3,01.16,0.508
2016-03-03 02:05:00,1952E-3,5C000400,-0724,0837,12095,027.9,045.4,0.255,756.3,01.16,0.508
2016-03-03 02:06:00,1826E-3,5C000400,-0724,0837,12266,027.9,045.4,0.256,756.3,01.16,0.508
2016-03-03 02:07:00,1819E-3,5C000400,-0724,0837,12204,027.9,045.4,0.256,756.3,01.16,0.508
2016-03-03 02:08:00,1835E-3,5C000400,-0724,0837,12189,027.9,045.4,0.255,756.4,01.16,0.508
2016-03-03 02:09:00,1689E-3,5C000400,-0724,0837,12157,027.9,045.4,0.255,756.4,01.16,0.508
2016-03-03 02:10:00,1854E-3,5C000400,-0724,0836,12082,027.9,045.4,0.256,756.5,01.16,0.508
2016-03-03 02:11:00,1732E-3,5C000400,-0724,0836,12117,027.9,045.4,0.256,756.3,01.16,0.508
2016-03-03 02:12:00,1727E-3,5C000400,-0724,0837,12025,027.9,045.4,0.255,756.1,01.16,0.508
2016-03-03 02:13:00,1782E-3,5C000400,-0724,0837,12167,027.9,045.4,0.256,756.2,01.16,0.508
2016-03-03 02:14:00,1711E-3,5C000400,-0724,0836,12203,027.9,045.4,0.256,756.5,01.16,0.508
2016-03-03 02:15:00,1766E-3,5C000400,-0724,0837,12154,027.9,045.4,0.255,756.2,01.16,0.508
2016-03-03 02:16:00,1850E-3,5C000400,-0724,0835,12212,027.9,045.4,0.255,756.1,01.16,0.508
2016-03-03 02:17:00,1942E-3,5C000400,-0724,0837,12084,027.9,045.4,0.256,756.2,01.16,0.508
2016-03-03 02:18:00,1823E-3,5C000400,-0724,0836,12170,027.9,045.4,0.256,756.3,01.16,0.508
2016-03-03 02:19:00,1773E-3,5C000400,-0724,0836,12171,027.9,045.4,0.256,756.4,01.16,0.508
2016-03-03 02:20:00,1791E-3,5C000400,-0724,0837,12028,027.9,045.4,0.255,756.0,01.16,0.508
2016-03-03 02:21:00,1956E-3,5C000400,-0724,0836,12091,027.9,045.4,0.256,756.2,01.16,0.508
2016-03-03 02:22:00,1725E-3,5C000400,-0724,0836,12095,027.9,045.4,0.255,756.1,01.16,0.508
2016-03-03 02:23:00,1637E-3,5C000400,-0724,0837,12160,027.9,045.4,0.255,756.3,01.16,0.508
2016-03-03 02:24:00,1904E-3,5C000400,-0724,0837,12146,027.9,045.4,0.256,756.4,01.16,0.508
2016-03-03 02:25:00,1735E-3,5C000400,-0724,0837,11980,027.9,045.4,0.256,756.5,01.16,0.508
2016-03-03 02:26:00,1655E-3,5C000400,-0724,0837,12068,027.9,045.4,0.256,756.4,01.16,0.508
2016-03-03 02:27:00,1864E-3,5C000400,-0724,0836,12251,027.9,045.4,0.255,756.2,01.16,0.508
2016-03-03 02:28:00,1794E-3,5C000400,-0724,0837,12221,027.9,045.4,0.255,756.4,01.16,0.508
2016-03-03 02:29:00,1767E-3,5C000400,-0724,0837,12312,027.9,045.4,0.256,756.2,01.16,0.508
2016-03-03 02:30:00,1772E-3,5C000400,-0724,0837,12149,027.9,045.4,0.256,756.4,01.16,0.508
2016-03-03 02:31:00,1780E-3,5C000400,-0724,0837,12019,027.9,045.4,0.256,756.3,01.16,0.508
2016-03-03 02:32:00,1677E-3,5C000400,-0724,0837,12110,027.9,045.4,0.255,756.5,01.16,0.508
2016-03-03 02:33:00,1829E-3,5C000400,-0724,0837,12080,027.9,045.4,0.256,756.6,01.16,0.508
2016-03-03 02:34:00,1885E-3,5C000400,-0724,0837,12156,027.9,045.4,0.256,756.6,01.16,0.508
2016-03-03 02:35:00,1780E-3,5C000400,-0724,0837,12171,027.9,045.4,0.256,756.6,01.16,0.508
2016-03-03 02:36:00,1848E-3,5C000400,-0724,0837,12110,027.9,045.4,0.255,756.5,01.16,0.508
2016-03-03 02:37:00,1810E-3,5C000400,-0724,0837,11989,027.9,045.4,0.256,756.5,01.16,0.508
2016-03-03 02:38:00,1785E-3,5C000400,-0724,0837,12127,027.9,045.4,0.256,756.6,01.16,0.508
2016-03-03 02:39:00,1879E-3,5C000400,-0724,0837,12001,027.9,045.4,0.255,756.5,01.16,0.508
2016-03-03 02:40:00,1725E-3,5C000400,-0724,0837,12200,027.9,045.4,0.256,756.4,01.16,0.508
2016-03-03 02:41:00,1792E-3,5C000400,-0724,0837,12031,027.9,045.4,0.256,756.4,01.16,0.508
2016-03-03 02:42:00,1858E-3,5C000400,-0724,0837,12057,028.0,045.4,0.256,756.3,01.16,0.508
2016-03-03 02:43:00,1764E-3,5C000400,-0724,0837,12182,027.9,045.4,0.255,756.2,01.16,0.508
2016-03-03 02:44:00,1844E-3,5C000400,-0724,0837,11928,027.9,045.4,0.256,756.5,01.16,0.508
2016-03-03 02:45:00,1930E-3,5C000400,-0724,0837,12048,028.0,045.4,0.256,756.4,01.16,0.508
2016-03-03 02:46:00,1857E-3,5C000400,-0724,0837,12112,028.0,045.4,0.256,756.3,01.16,0.508
2016-03-03 02:47:00,1837E-3,5C000400,-0724,0837,12169,028.0,045.4,0.256,756.2,01.16,0.508
2016-03-03 02:48:00,1914E-3,5C000400,-0724,0837,12088,028.0,045.4,0.256,756.2,01.16,0.508
2016-03-03 02:49:00,1796E-3,5C000400,-0724,0837,12157,027.9,045.4,0.256,756.4,01.16,0.508
2016-03-03 02:50:00,1729E-3,5C000400,-0724,0836,12346,028.0,045.4,0.255,756.3,01.16,0.508
2016-03-03 02:51:00,1913E-3,5C000400,-0724,0837,12231,028.0,045.4,0.256,756.2,01.16,0.508
2016-03-03 02:52:00,1789E-3,5C000400,-0724,0837,12083,028.0,045.4,0.256,756.3,01.16,0.508
2016-03-03 02:53:00,1844E-3,5C000400,-0724,0837,12183,028.0,045.4,0.255,756.4,01.16,0.508
2016-03-03 02:54:00,1669E-3,5C000400,-0724,0836,12161,028.0,045.4,0.256,756.3,01.16,0.508
2016-03-03 02:55:00,1916E-3,5C000400,-0724,0837,12145,027.9,045.4,0.256,756.3,01.16,0.508
2016-03-03 02:56:00,1715E-3,5C000400,-0724,0837,12137,028.0,045.4,0.256,756.3,01.16,0.508
2016-03-03 02:57:00,1690E-3,5C000400,-0724,0837,12225,028.0,045.4,0.255,756.3,01.16,0.508
2016-03-03 02:58:00,1826E-3,5C000400,-0724,0837,12181,028.0,045.4,0.256,756.3,01.16,0.508
2016-03-03 02:59:00,1748E-3,5C000400,-0724,0838,12175,028.0,045.4,0.256,756.3,01.16,0.508
2016-03-03 03:00:00,1904E-3,5C000400,-0724,0837,12023,028.0,045.4,0.255,756.1,01.16,0.508
2016-03-03 03:01:00,1767E-3,5C000400,-0724,0837,12079,028.0,045.4,0.255,756.1,01.16,0.508
2016-03-03 03:02:00,1765E-3,5C000400,-0724,0837,12071,028.0,045.4,0.256,756.0,01.16,0.508
2016-03-03 03:03:00,1841E-3,5C000400,-0724,0837,12278,028.0,045.4,0.256,756.1,01.16,0.508
2016-03-03 03:04:00,1867E-3,5C000400,-0724,0837,12087,028.0,045.4,0.256,756.0,01.16,0.508
2016-03-03 03:05:00,1725E-3,5C000400,-0724,0836,12119,028.0,045.4,0.255,755.8,01.16,0.508
2016-03-03 03:06:00,1980E-3,5C000400,-0724,0836,12050,028.0,045.4,0.255,755.7,01.16,0.508
2016-03-03 03:07:00,1958E-3,5C000400,-0724,0837,12141,028.0,045.4,0.256,755.8,01.16,0.508
2016-03-03 03:08:00,1920E-3,5C000400,-0724,0836,12032,028.0,045.4,0.256,755.8,01.16,0.508
2016-03-03 03:09:00,1812E-3,5C000400,-0724,0837,12064,028.0,045.4,0.255,755.8,01.16,0.508
2016-03-03 03:10:00,1728E-3,5C000400,-0724,0838,12105,028.0,045.4,0.255,755.6,01.16,0.508
2016-03-03 03:11:00,1764E-3,5C000400,-0724,0836,12007,028.0,045.4,0.255,755.6,01.16,0.508
2016-03-03 03:12:00,1817E-3,5C000400,-0724,0837,12147,028.0,045.4,0.256,755.5,01.16,0.508
2016-03-03 03:13:00,1761E-3,5C000400,-0724,0836,12143,028.0,045.4,0.256,755.8,01.16,0.508
2016-03-03 03:14:00,1859E-3,5C000400,-0724,0837,12113,028.0,045.4,0.255,755.8,01.16,0.508
2016-03-03 03:15:00,1776E-3,5C000400,-0724,0837,12068,028.0,045.4,0.255,756.0,01.16,0.508
2016-03-03 03:16:00,1829E-3,5C000400,-0724,0837,12102,028.0,045.4,0.256,755.9,01.16,0.508
2016-03-03 03:17:00,1951E-3,5C000400,-0724,0837,12101,028.0,045.4,0.256,756.0,01.16,0.508
2016-03-03 03:18:00,1732E-3,5C000400,-0724,0836,12102,028.0,045.4,0.255,756.0,01.16,0.508
2016-03-03 03:19:00,1765E-3,5C000400,-0724,0837,12047,028.0,045.4,0.256,756.0,01.16,0.508
2016-03-03 03:20:00,1900E-3,5C000400,-0724,0837,12080,028.0,045.4,0.256,756.0,01.16,0.508
2016-03-03 03:21:00,1807E-3,5C000400,-0724,0837,12043,028.0,045.4,0.255,755.9,01.16,0.508
2016-03-03 03:22:00,1913E-3,5C000400,-0724,0837,12093,028.0,045.4,0.255,756.0,01.16,0.508
2016-03-03 03:23:00,1732E-3,5C000400,-0724,0837,12194,028.0,045.4,0.256,756.1,01.16,0.508
2016-03-03 03:24:00,1783E-3,5C000400,-0724,0837,12062,028.0,045.4,0.255,755.9,01.16,0.508
2016-03-03 03:25:00,1929E-3,5C000400,-0724,0837,12095,028.0,045.4,0.255,756.1,01.16,0.508
2016-03-03 03:26:00,1867E-3,5C000400,-0724,0837,12134,028.0,045.4,0.255,756.1,01.16,0.508
2016-03-03 03:27:00,1689E-3,5C000400,-0724,0837,12177,028.0,045.4,0.256,756.1,01.16,0.508
2016-03-03 03:28:00,1829E-3,5C000400,-0724,0837,12162,028.0,045.4,0.256,756.1,01.16,0.508
2016-03-03 03:29:00,1825E-3,5C000400,-0724,0837,12059,028.0,045.4,0.255,756.1,01.16,0.508
2016-03-03 03:30:00,1812E-3,5C000400,-0724,0837,12210,028.0,045.4,0.255,756.1,01.16,0.508
2016-03-03 03:31:00,1679E-3,5C000400,-0724,0837,12075,028.0,045.4,0.256,756.0,01.16,0.508
2016-03-03 03:32:00,1794E-3,5C000400,-0724,0838,12102,028.0,045.4,0.256,755.7,01.16,0.508
2016-03-03 03:33:00,1909E-3,5C000400,-0724,0836,12075,028.0,045.4,0.256,756.0,01.16,0.508
2016-03-03 03:34:00,1715E-3,5C000400,-0724,0837,12187,028.0,045.4,0.255,756.0,01.16,0.508
2016-03-03 03:35:00,1780E-3,5C000400,-0724,0837,12016,028.0,045.4,0.255,756.1,01.16,0.508
2016-03-03 03:36:00,1781E-3,5C000400,-0724,0836,12077,028.0,045.4,0.256,756.2,01.16,0.508
2016-03-03 03:37:00,1780E-3,5C000400,-0724,0837,12128,028.0,045.4,0.256,756.1,01.16,0.508
2016-03-03 03:38:00,1711E-3,5C000400,-0724,0838,12143,028.0,045.4,0.256,756.2,01.16,0.508
2016-03-03 03:39:00,1758E-3,5C000400,-0724,0836,12178,028.0,045.4,0.255,756.2,01.16,0.508
2016-03-03 03:40:00,1921E-3,5C000400,-0724,0837,12097,028.0,045.4,0.255,756.2,01.16,0.508
2016-03-03 03:41:00,1888E-3,5C000400,-0724,0837,12137,028.0,045.4,0.256,756.3,01.16,0.508
2016-03-03 03:42:00,1857E-3,5C000400,-0724,0837,12141,028.0,045.4,0.256,756.3,01.16,0.508
2016-03-03 03:43:00,1925E-3,5C000400,-0724,0837,12117,028.0,045.4,0.256,756.2,01.16,0.508
2016-03-03 03:44:00,1772E-3,5C000400,-0724,0837,12028,028.1,045.4,0.256,756.0,01.16,0.508
2016-03-03 03:45:00,1817E-3,5C000400,-0724,0837,12018,028.0,045.4,0.256,756.1,01.16,0.508
2016-03-03 03:46:00,1904E-3,5C000400,-0724,0838,12221,028.0,045.4,0.255,756.1,01.16,0.508
2016-03-03 03:47:00,1758E-3,5C000400,-0724,0837,12232,028.0,045.4,0.256,755.9,01.16,0.508
2016-03-03 03:48:00,1858E-3,5C000400,-0724,0837,12144,028.1,045.4,0.256,756.1,01.16,0.508
2016-03-03 03:49:00,1881E-3,5C000400,-0724,0836,12187,028.0,045.4,0.255,756.0,01.16,0.508
2016-03-03 03:50:00,1844E-3,5C000400,-0724,0837,12181,028.0,045.4,0.255,756.2,01.16,0.508
2016-03-03 03:51:00,1866E-3,5C000400,-0724,0836,12183,028.0,045.4,0.256,756.1,01.16,0.508
2016-03-03 03:52:00,1770E-3,5C000400,-0724,0837,12214,028.0,045.4,0.255,756.2,01.16,0.508
2016-03-03 03:53:00,1730E-3,5C000400,-0724,0837,12099,028.0,045.4,0.255,756.3,01.16,0.508
2016-03-03 03:54:00,1708E-3,5C000400,-0724,0837,12080,028.0,045.4,0.255,756.2,01.16,0.508
2016-03-03 03:55:00,1828E-3,5C000400,-0724,0837,12119,028.0,045.4,0.256,756.3,01.16,0.508
2016-03-03 03:56:00,1848E-3,5C000400,-0724,0838,12130,028.0,045.4,0.255,756.3,01.16,0.508
2016-03-03 03:57:00,1829E-3,5C000400,-0724,0837,12158,028.0,045.4,0.255,756.4,01.16,0.508
2016-03-03 03:58:00,1872E-3,5C000400,-0724,0838,12278,028.0,045.4,0.256,756.4,01.16,0.508
2016-03-03 03:59:00,1916E-3,5C000400,-0724,0837,12073,028.0,045.4,0.256,756.3,01.16,0.508
2016-03-03 04:00:00,1819E-3,5C000400,-0724,0837,12226,028.0,045.4,0.255,756.3,01.16,0.508
2016-03-03 04:01:00,1858E-3,5C000400,-0724,0837,12112,028.0,045.4,0.255,756.3,01.16,0.508
2016-03-03 04:02:00,1890E-3,5C000400,-0724,0837,12145,028.0,045.4,0.256,756.3,01.16,0.508
2016-03-03 04:03:00,1757E-3,5C000400,-0724,0837,12015,028.0,045.4,0.256,756.3,01.16,0.508
2016-03-03 04:04:00,1849E-3,5C000400,-0724,0838,12159,028.0,045.4,0.255,756.2,01.16,0.508
2016-03-03 04:05:00,1797E-3,5C000400,-0724,0837,12094,028.0,045.4,0.255,756.3,01.16,0.508
2016-03-03 04:06:00,1679E-3,5C000400,-0724,0837,12204,028.0,045.4,0.256,756.2,01.16,0.508
2016-03-03 04:07:00,1834E-3,5C000400,-0724,0837,12314,028.0,045.4,0.256,756.3,01.16,0.508
2016-03-03 04:08:00,1970E-3,5C000400,-0724,0837,12245,028.0,045.4,0.255,756.3,01.16,0.508
2016-03-03 04:09:00,1835E-3,5C000400,-0724,0837,12150,028.0,045.4,0.255,756.2,01.16,0.508
2016-03-03 04:10:00,1826E-3,5C000400,-0724,0837,12152,028.0,045.4,0.255,756.2,01.16,0.508
2016-03-03 04:11:00,1733E-3,5C000400,-0724,0837,12033,028.0,045.4,0.256,756.1,01.16,0.508
2016-03-03 04:12:00,1799E-3,5C000400,-0724,0837,12107,028.1,045.4,0.256,756.3,01.16,0.508
2016-03-03 04:13:00,1837E-3,5C000400,-0724,0837,12169,028.1,045.4,0.256,756.3,01.16,0.508
2016-03-03 04:14:00,1997E-3,5C000400,-0724,0837,12199,028.1,045.4,0.255,756.2,01.16,0.508
2016-03-03 04:15:00,1827E-3,5C000400,-0724,0837,12226,028.0,045.4,0.255,756.3,01.16,0.508
2016-03-03 04:16:00,1875E-3,5C000400,-0724,0837,11968,028.1,045.4,0.256,756.4,01.16,0.508
2016-03-03 04:17:00,1837E-3,5C000400,-0724,0837,12010,028.0,045.4,0.256,756.4,01.16,0.508
2016-03-03 04:18:00,1780E-3,5C000400,-0724,0837,12168,028.1,045.4,0.255,756.4,01.16,0.508
2016-03-03 04:19:00,1920E-3,5C000400,-0724,0836,12135,028.1,045.4,0.255,756.5,01.16,0.508
2016-03-03 04:20:00,1761E-3,5C000400,-0724,0837,12083,028.1,045.4,0.256,756.4,01.16,0.508